Time,TemperatureF,DewpointF,PressureIn,WindDirection,WindDirectionDegrees,WindSpeedMPH,WindSpeedGustMPH,Humidity,HourlyPrecipIn,Conditions,Clouds,dailyrainin,SolarRadiationWatts/m^2,SoftwareType,DateUTC
2013-03-23 00:02:00,33.1,29.0,29.91,NE,56,0.0,3.0,85,0.00,,,0.00,0,Custom,2013-03-23 05:02:00,
2013-03-23 00:07:00,33.1,29.0,29.91,ENE,77,0.0,2.0,84,0.00,,,0.00,0,Custom,2013-03-23 05:07:00,
2013-03-23 00:12:00,33.0,29.0,29.91,East,80,0.0,2.0,85,0.00,,,0.00,0,Custom,2013-03-23 05:12:00,
2013-03-23 00:17:00,33.0,29.0,29.91,East,79,0.0,3.0,85,0.00,,,0.00,0,Custom,2013-03-23 05:17:00,
2013-03-23 00:22:00,33.0,29.0,29.91,East,79,0.0,2.0,86,0.00,,,0.00,0,Custom,2013-03-23 05:22:00,
2013-03-23 00:28:00,33.0,29.0,29.91,ENE,77,0.0,1.0,86,0.00,,,0.00,0,Custom,2013-03-23 05:28:00,
2013-03-23 00:33:00,33.0,29.0,29.91,ENE,77,0.0,0.0,86,0.00,,,0.00,0,Custom,2013-03-23 05:33:00,
2013-03-23 00:38:00,32.9,29.0,29.91,NNE,24,0.0,2.0,86,0.00,,,0.00,0,Custom,2013-03-23 05:38:00,
2013-03-23 00:43:00,32.9,29.0,29.91,NE,41,0.0,2.0,87,0.00,,,0.00,0,Custom,2013-03-23 05:43:00,
2013-03-23 00:48:00,32.8,29.0,29.91,NE,50,0.0,3.0,87,0.00,,,0.00,0,Custom,2013-03-23 05:48:00,
2013-03-23 00:53:00,32.7,29.0,29.91,NE,50,0.0,1.0,87,0.00,,,0.00,0,Custom,2013-03-23 05:53:00,
2013-03-23 00:58:00,32.7,29.0,29.91,NE,53,0.0,2.0,88,0.00,,,0.00,0,Custom,2013-03-23 05:58:00,
2013-03-23 01:03:00,32.6,29.0,29.91,ENE,57,0.0,2.0,88,0.00,,,0.00,0,Custom,2013-03-23 06:03:00,
2013-03-23 01:08:00,32.5,29.0,29.91,NE,50,0.0,2.0,88,0.00,,,0.00,0,Custom,2013-03-23 06:08:00,
2013-03-23 01:13:00,32.5,30.0,29.91,ENE,71,0.0,3.0,89,0.00,,,0.00,0,Custom,2013-03-23 06:13:00,
2013-03-23 01:18:00,32.4,30.0,29.91,ENE,61,0.0,1.0,89,0.00,,,0.00,0,Custom,2013-03-23 06:18:00,
2013-03-23 01:23:00,32.4,30.0,29.91,NE,49,0.0,2.0,89,0.00,,,0.00,0,Custom,2013-03-23 06:23:00,
2013-03-23 01:28:00,32.3,30.0,29.90,NE,55,0.0,1.0,89,0.00,,,0.00,0,Custom,2013-03-23 06:28:00,
2013-03-23 01:33:00,32.3,30.0,29.90,ENE,59,0.0,3.0,90,0.00,,,0.00,0,Custom,2013-03-23 06:33:00,
2013-03-23 01:38:00,32.3,30.0,29.90,ENE,66,0.0,2.0,90,0.00,,,0.00,0,Custom,2013-03-23 06:38:00,
2013-03-23 01:43:00,32.3,30.0,29.90,ENE,64,0.0,3.0,90,0.00,,,0.00,0,Custom,2013-03-23 06:43:00,
2013-03-23 01:48:00,32.3,30.0,29.90,ENE,73,0.0,2.0,90,0.00,,,0.00,0,Custom,2013-03-23 06:48:00,
2013-03-23 01:53:00,32.3,30.0,29.90,ENE,73,0.0,0.0,90,0.00,,,0.00,0,Custom,2013-03-23 06:53:00,
2013-03-23 01:58:00,32.3,30.0,29.90,ENE,68,0.0,1.0,90,0.00,,,0.00,0,Custom,2013-03-23 06:58:00,
2013-03-23 02:03:00,32.3,30.0,29.90,ENE,70,0.0,2.0,90,0.00,,,0.00,0,Custom,2013-03-23 07:03:00,
2013-03-23 02:08:00,32.2,30.0,29.90,East,85,0.0,3.0,90,0.00,,,0.00,0,Custom,2013-03-23 07:08:00,
2013-03-23 02:13:00,32.3,30.0,29.90,ENE,62,0.0,2.0,90,0.00,,,0.00,0,Custom,2013-03-23 07:13:00,
2013-03-23 02:18:00,32.3,30.0,29.90,ENE,65,0.0,3.0,90,0.00,,,0.00,0,Custom,2013-03-23 07:18:00,
2013-03-23 02:23:00,32.3,29.0,29.90,ENE,57,0.0,3.0,89,0.00,,,0.00,0,Custom,2013-03-23 07:23:00,
2013-03-23 02:28:00,32.3,30.0,29.90,NE,53,0.0,3.0,90,0.00,,,0.00,0,Custom,2013-03-23 07:28:00,
2013-03-23 02:33:00,32.3,30.0,29.90,NE,43,0.0,3.0,90,0.00,,,0.00,0,Custom,2013-03-23 07:33:00,
2013-03-23 02:38:00,32.4,30.0,29.89,East,82,0.0,5.0,89,0.00,,,0.00,0,Custom,2013-03-23 07:38:00,
2013-03-23 02:43:00,32.4,29.0,29.89,NE,56,0.0,1.0,89,0.00,,,0.00,0,Custom,2013-03-23 07:43:00,
2013-03-23 02:48:00,32.4,29.0,29.89,ENE,70,0.0,3.0,89,0.00,,,0.00,0,Custom,2013-03-23 07:48:00,
2013-03-23 02:53:00,32.4,29.0,29.89,ENE,59,0.0,2.0,89,0.00,,,0.00,0,Custom,2013-03-23 07:53:00,
2013-03-23 02:58:00,32.4,29.0,29.88,East,79,0.0,2.0,88,0.00,,,0.00,0,Custom,2013-03-23 07:58:00,
2013-03-23 03:03:00,32.5,29.0,29.88,East,86,0.0,2.0,89,0.00,,,0.00,0,Custom,2013-03-23 08:03:00,
2013-03-23 03:08:00,32.5,29.0,29.89,East,86,0.0,0.0,88,0.00,,,0.00,0,Custom,2013-03-23 08:08:00,
2013-03-23 03:13:00,32.5,29.0,29.89,East,85,0.0,2.0,88,0.00,,,0.00,0,Custom,2013-03-23 08:13:00,
2013-03-23 03:18:00,32.6,29.0,29.89,East,85,0.0,1.0,88,0.00,,,0.00,0,Custom,2013-03-23 08:18:00,
2013-03-23 03:23:00,32.6,29.0,29.88,East,80,0.0,2.0,88,0.00,,,0.00,0,Custom,2013-03-23 08:23:00,
2013-03-23 03:28:00,32.6,29.0,29.88,East,80,0.0,2.0,88,0.00,,,0.00,0,Custom,2013-03-23 08:28:00,
2013-03-23 03:33:00,32.6,29.0,29.88,East,88,0.0,3.0,87,0.00,,,0.00,0,Custom,2013-03-23 08:33:00,
2013-03-23 03:38:00,32.6,29.0,29.88,East,88,0.0,0.0,87,0.00,,,0.00,0,Custom,2013-03-23 08:38:00,
2013-03-23 03:43:00,32.7,29.0,29.88,ENE,77,0.0,2.0,87,0.00,,,0.00,0,Custom,2013-03-23 08:43:00,
2013-03-23 03:48:00,32.7,29.0,29.88,ENE,77,0.0,2.0,86,0.00,,,0.00,0,Custom,2013-03-23 08:48:00,
2013-03-23 03:53:00,32.7,29.0,29.88,ENE,77,2.0,0.0,86,0.00,,,0.00,0,Custom,2013-03-23 08:53:00,
2013-03-23 03:58:00,32.7,29.0,29.88,ENE,77,0.0,2.0,86,0.00,,,0.00,0,Custom,2013-03-23 08:58:00,
2013-03-23 04:03:00,32.8,29.0,29.88,ENE,77,0.0,1.0,86,0.00,,,0.00,0,Custom,2013-03-23 09:03:00,
2013-03-23 04:08:00,32.8,29.0,29.88,ENE,77,0.0,1.0,86,0.00,,,0.00,0,Custom,2013-03-23 09:08:00,
2013-03-23 04:13:00,32.8,29.0,29.88,ENE,77,0.0,1.0,86,0.00,,,0.00,0,Custom,2013-03-23 09:13:00,
2013-03-23 04:18:00,32.8,29.0,29.88,ENE,77,0.0,1.0,85,0.00,,,0.00,0,Custom,2013-03-23 09:18:00,
2013-03-23 04:23:00,32.8,29.0,29.88,ENE,77,0.0,0.0,86,0.00,,,0.00,0,Custom,2013-03-23 09:23:00,
2013-03-23 04:28:00,32.8,29.0,29.88,ENE,77,2.0,2.0,85,0.00,,,0.00,0,Custom,2013-03-23 09:28:00,
2013-03-23 04:33:00,32.8,29.0,29.88,ENE,77,0.0,1.0,86,0.00,,,0.00,0,Custom,2013-03-23 09:33:00,
2013-03-23 04:38:00,32.9,29.0,29.88,ENE,77,2.0,0.0,85,0.00,,,0.00,0,Custom,2013-03-23 09:38:00,
2013-03-23 04:43:00,32.9,29.0,29.88,ENE,77,1.0,1.0,85,0.00,,,0.00,0,Custom,2013-03-23 09:43:00,
2013-03-23 04:48:00,32.9,29.0,29.88,ENE,77,1.0,1.0,86,0.00,,,0.00,0,Custom,2013-03-23 09:48:00,
2013-03-23 04:53:00,32.9,29.0,29.88,ENE,77,0.0,2.0,85,0.00,,,0.00,0,Custom,2013-03-23 09:53:00,
2013-03-23 04:58:00,32.9,29.0,29.88,ENE,77,0.0,1.0,85,0.00,,,0.00,0,Custom,2013-03-23 09:58:00,
2013-03-23 05:03:00,33.0,29.0,29.88,ENE,74,0.0,2.0,85,0.00,,,0.00,0,Custom,2013-03-23 10:03:00,
2013-03-23 05:08:00,33.0,29.0,29.88,NE,55,0.0,3.0,85,0.00,,,0.00,0,Custom,2013-03-23 10:08:00,
2013-03-23 05:13:00,33.0,29.0,29.88,NE,54,4.0,4.0,85,0.00,,,0.00,0,Custom,2013-03-23 10:13:00,
2013-03-23 05:18:00,33.0,29.0,29.88,NE,54,0.0,3.0,85,0.00,,,0.00,0,Custom,2013-03-23 10:18:00,
2013-03-23 05:23:00,33.0,29.0,29.88,ENE,60,3.0,3.0,85,0.00,,,0.00,0,Custom,2013-03-23 10:23:00,
2013-03-23 05:28:00,33.0,29.0,29.89,ENE,58,0.0,3.0,85,0.00,,,0.00,0,Custom,2013-03-23 10:28:00,
2013-03-23 05:33:00,33.0,29.0,29.88,ENE,73,0.0,5.0,85,0.00,,,0.00,0,Custom,2013-03-23 10:33:00,
2013-03-23 05:38:00,33.1,29.0,29.89,NE,54,2.0,5.0,85,0.00,,,0.00,0,Custom,2013-03-23 10:38:00,
2013-03-23 05:43:00,33.0,29.0,29.89,NE,55,5.0,5.0,85,0.00,,,0.00,0,Custom,2013-03-23 10:43:00,
2013-03-23 05:48:00,33.0,29.0,29.89,NE,53,0.0,4.0,86,0.00,,,0.00,0,Custom,2013-03-23 10:48:00,
2013-03-23 05:53:00,33.0,29.0,29.89,NE,53,0.0,1.0,85,0.00,,,0.00,0,Custom,2013-03-23 10:53:00,
2013-03-23 05:58:00,33.0,29.0,29.89,East,79,1.0,3.0,85,0.00,,,0.00,0,Custom,2013-03-23 10:58:00,
2013-03-23 06:03:00,33.1,29.0,29.89,NE,54,2.0,2.0,85,0.00,,,0.00,0,Custom,2013-03-23 11:03:00,
2013-03-23 06:08:00,33.1,29.0,29.89,NE,44,2.0,2.0,85,0.00,,,0.00,0,Custom,2013-03-23 11:08:00,
2013-03-23 06:13:00,33.1,29.0,29.89,NE,36,0.0,1.0,85,0.00,,,0.00,0,Custom,2013-03-23 11:13:00,
2013-03-23 06:18:00,33.0,29.0,29.89,NE,39,0.0,3.0,86,0.00,,,0.00,0,Custom,2013-03-23 11:18:00,
2013-03-23 06:23:00,33.1,29.0,29.88,ENE,57,0.0,2.0,85,0.00,,,0.00,0,Custom,2013-03-23 11:23:00,
2013-03-23 06:28:00,33.1,29.0,29.88,NE,48,0.0,2.0,85,0.00,,,0.00,0,Custom,2013-03-23 11:28:00,
2013-03-23 06:33:00,33.1,29.0,29.89,ENE,58,0.0,2.0,86,0.00,,,0.00,0,Custom,2013-03-23 11:33:00,
2013-03-23 06:38:00,33.1,29.0,29.88,ENE,57,0.0,3.0,85,0.00,,,0.00,0,Custom,2013-03-23 11:38:00,
2013-03-23 06:43:00,33.1,29.0,29.88,ENE,57,0.0,2.0,85,0.00,,,0.00,0,Custom,2013-03-23 11:43:00,
2013-03-23 06:48:00,33.1,29.0,29.88,NE,54,0.0,5.0,85,0.00,,,0.00,0,Custom,2013-03-23 11:48:00,
2013-03-23 06:53:00,33.1,29.0,29.88,ENE,75,0.0,2.0,85,0.00,,,0.00,0,Custom,2013-03-23 11:53:00,
2013-03-23 06:58:00,33.1,29.0,29.88,ENE,74,0.0,2.0,85,0.00,,,0.00,0,Custom,2013-03-23 11:58:00,
2013-03-23 07:03:00,33.1,29.0,29.88,ENE,60,0.0,3.0,85,0.00,,,0.00,0,Custom,2013-03-23 12:03:00,
2013-03-23 07:08:00,33.1,29.0,29.89,East,81,0.0,2.0,85,0.00,,,0.00,0,Custom,2013-03-23 12:08:00,
2013-03-23 07:13:00,33.1,29.0,29.89,ENE,66,0.0,4.0,85,0.00,,,0.00,0,Custom,2013-03-23 12:13:00,
2013-03-23 07:19:00,33.1,29.0,29.90,NE,46,0.0,1.0,85,0.00,,,0.00,0,Custom,2013-03-23 12:19:00,
2013-03-23 07:24:00,33.1,29.0,29.89,NE,44,2.0,4.0,85,0.00,,,0.00,0,Custom,2013-03-23 12:24:00,
2013-03-23 07:29:00,33.1,29.0,29.90,NNE,22,0.0,1.0,85,0.00,,,0.00,0,Custom,2013-03-23 12:29:00,
2013-03-23 07:34:00,33.1,29.0,29.89,ENE,67,0.0,2.0,85,0.00,,,0.00,0,Custom,2013-03-23 12:34:00,
2013-03-23 07:39:00,33.1,29.0,29.89,NE,44,0.0,4.0,84,0.00,,,0.00,0,Custom,2013-03-23 12:39:00,
2013-03-23 07:44:00,33.2,29.0,29.89,NE,47,0.0,3.0,85,0.00,,,0.00,7.8,Custom,2013-03-23 12:44:00,
2013-03-23 07:49:00,33.2,29.0,29.89,NNE,22,0.0,1.0,85,0.00,,,0.00,8.58,Custom,2013-03-23 12:49:00,
2013-03-23 07:54:00,33.3,29.0,29.89,ENE,64,0.0,2.0,84,0.00,,,0.00,10.92,Custom,2013-03-23 12:54:00,
2013-03-23 07:59:00,33.3,29.0,29.90,ENE,64,0.0,2.0,84,0.00,,,0.00,11.31,Custom,2013-03-23 12:59:00,
2013-03-23 08:04:00,33.4,29.0,29.91,NNE,32,0.0,3.0,83,0.00,,,0.00,12.09,Custom,2013-03-23 13:04:00,
2013-03-23 08:09:00,33.4,29.0,29.91,East,94,0.0,3.0,84,0.00,,,0.00,13.26,Custom,2013-03-23 13:09:00,
2013-03-23 08:14:00,33.4,29.0,29.90,ENE,76,0.0,3.0,83,0.00,,,0.00,15.21,Custom,2013-03-23 13:14:00,
2013-03-23 08:19:00,33.5,29.0,29.90,NE,54,0.0,4.0,83,0.00,,,0.00,17.55,Custom,2013-03-23 13:19:00,
2013-03-23 08:24:00,33.5,29.0,29.90,ENE,66,0.0,1.0,83,0.00,,,0.00,19.5,Custom,2013-03-23 13:24:00,
2013-03-23 08:29:00,33.6,29.0,29.90,ENE,70,0.0,5.0,84,0.00,,,0.00,21.06,Custom,2013-03-23 13:29:00,
2013-03-23 08:34:00,33.6,29.0,29.90,ENE,62,0.0,2.0,84,0.00,,,0.00,21.84,Custom,2013-03-23 13:34:00,
2013-03-23 08:39:00,33.7,29.0,29.90,NE,34,0.0,3.0,84,0.00,,,0.00,25.74,Custom,2013-03-23 13:39:00,
2013-03-23 08:44:00,33.8,29.0,29.89,NE,47,0.0,5.0,84,0.00,,,0.00,31.98,Custom,2013-03-23 13:44:00,
2013-03-23 08:49:00,34.0,30.0,29.89,ENE,64,0.0,6.0,84,0.00,,,0.00,31.59,Custom,2013-03-23 13:49:00,
2013-03-23 08:54:00,34.1,30.0,29.90,ENE,66,0.0,3.0,83,0.00,,,0.00,29.64,Custom,2013-03-23 13:54:00,
2013-03-23 08:59:00,34.2,29.0,29.91,East,93,0.0,7.0,83,0.00,,,0.00,30.42,Custom,2013-03-23 13:59:00,
2013-03-23 09:04:00,34.2,30.0,29.91,ENE,60,0.0,2.0,83,0.00,,,0.00,28.86,Custom,2013-03-23 14:04:00,
2013-03-23 09:09:00,34.4,30.0,29.91,ENE,63,0.0,2.0,82,0.00,,,0.00,33.93,Custom,2013-03-23 14:09:00,
2013-03-23 09:14:00,34.5,29.0,29.91,ENE,63,0.0,1.0,81,0.00,,,0.00,34.32,Custom,2013-03-23 14:14:00,
2013-03-23 09:19:00,34.7,30.0,29.91,ENE,63,0.0,1.0,82,0.00,,,0.00,39,Custom,2013-03-23 14:19:00,
2013-03-23 09:24:00,34.8,29.0,29.91,ENE,68,0.0,2.0,81,0.00,,,0.00,43.29,Custom,2013-03-23 14:24:00,
2013-03-23 09:29:00,34.9,29.0,29.91,ENE,67,0.0,1.0,81,0.00,,,0.00,47.19,Custom,2013-03-23 14:29:00,
2013-03-23 09:34:00,34.9,29.0,29.91,NE,46,0.0,1.0,80,0.00,,,0.00,55.38,Custom,2013-03-23 14:34:00,
2013-03-23 09:39:00,35.1,29.0,29.91,ENE,69,0.0,3.0,80,0.00,,,0.00,49.92,Custom,2013-03-23 14:39:00,
2013-03-23 09:44:00,35.1,30.0,29.91,NE,51,0.0,1.0,80,0.00,,,0.00,52.26,Custom,2013-03-23 14:44:00,
2013-03-23 09:49:00,35.4,30.0,29.90,NE,50,0.0,2.0,80,0.00,,,0.00,60.84,Custom,2013-03-23 14:49:00,
2013-03-23 09:54:00,35.4,30.0,29.90,NNE,13,2.0,2.0,80,0.00,,,0.00,63.96,Custom,2013-03-23 14:54:00,
2013-03-23 09:59:00,35.5,30.0,29.90,NNE,33,2.0,4.0,80,0.00,,,0.00,62.79,Custom,2013-03-23 14:59:00,
2013-03-23 10:04:00,35.5,30.0,29.90,East,82,3.0,4.0,79,0.00,,,0.00,62.01,Custom,2013-03-23 15:04:00,
2013-03-23 10:09:00,35.6,30.0,29.90,ENE,63,2.0,5.0,80,0.00,,,0.00,77.22,Custom,2013-03-23 15:09:00,
2013-03-23 10:14:00,35.8,30.0,29.90,East,89,0.0,2.0,79,0.00,,,0.00,76.83,Custom,2013-03-23 15:14:00,
2013-03-23 10:19:00,35.9,30.0,29.91,ENE,59,3.0,3.0,79,0.00,,,0.00,75.66,Custom,2013-03-23 15:19:00,
2013-03-23 10:24:00,36.2,30.0,29.91,NNE,20,0.0,3.0,78,0.00,,,0.00,79.17,Custom,2013-03-23 15:24:00,
2013-03-23 10:29:00,36.3,30.0,29.91,NE,49,2.0,4.0,78,0.00,,,0.00,74.1,Custom,2013-03-23 15:29:00,
2013-03-23 10:34:00,36.3,30.0,29.91,ENE,65,0.0,5.0,79,0.00,,,0.00,83.46,Custom,2013-03-23 15:34:00,
2013-03-23 10:39:00,36.5,30.0,29.91,ENE,69,4.0,0.0,78,0.00,,,0.00,83.85,Custom,2013-03-23 15:39:00,
2013-03-23 10:44:00,36.3,30.0,29.91,NE,55,0.0,4.0,77,0.00,,,0.00,66.69,Custom,2013-03-23 15:44:00,
2013-03-23 10:49:00,36.2,30.0,29.91,NNE,25,0.0,1.0,78,0.00,,,0.00,79.56,Custom,2013-03-23 15:49:00,
2013-03-23 10:54:00,36.3,30.0,29.92,ENE,63,0.0,4.0,78,0.00,,,0.00,72.54,Custom,2013-03-23 15:54:00,
2013-03-23 10:59:00,36.5,30.0,29.92,NE,44,0.0,4.0,77,0.00,,,0.00,73.32,Custom,2013-03-23 15:59:00,
2013-03-23 11:04:00,36.6,30.0,29.92,East,91,0.0,2.0,77,0.00,,,0.00,78.39,Custom,2013-03-23 16:04:00,
2013-03-23 11:09:00,36.7,30.0,29.92,East,91,0.0,2.0,76,0.00,,,0.00,74.1,Custom,2013-03-23 16:09:00,
2013-03-23 11:14:00,36.7,30.0,29.92,ENE,61,0.0,4.0,76,0.00,,,0.00,70.59,Custom,2013-03-23 16:14:00,
2013-03-23 11:19:00,36.5,30.0,29.92,ENE,62,0.0,4.0,76,0.00,,,0.00,74.1,Custom,2013-03-23 16:19:00,
2013-03-23 11:24:00,36.5,30.0,29.92,ENE,78,0.0,5.0,77,0.00,,,0.00,74.88,Custom,2013-03-23 16:24:00,
2013-03-23 11:29:00,36.7,30.0,29.92,NE,48,0.0,5.0,76,0.00,,,0.00,62.79,Custom,2013-03-23 16:29:00,
2013-03-23 11:34:00,36.7,30.0,29.92,East,82,0.0,3.0,76,0.00,,,0.00,62.4,Custom,2013-03-23 16:34:00,
2013-03-23 11:39:00,36.7,30.0,29.92,ENE,78,0.0,2.0,76,0.00,,,0.00,65.13,Custom,2013-03-23 16:39:00,
2013-03-23 11:44:00,36.7,30.0,29.92,ENE,66,0.0,2.0,75,0.00,,,0.00,69.03,Custom,2013-03-23 16:44:00,
2013-03-23 11:49:00,36.7,30.0,29.92,ENE,68,0.0,4.0,75,0.00,,,0.00,69.03,Custom,2013-03-23 16:49:00,
2013-03-23 11:54:00,36.6,30.0,29.91,NE,46,0.0,3.0,76,0.00,,,0.00,69.81,Custom,2013-03-23 16:54:00,
2013-03-23 11:59:00,36.8,30.0,29.91,NE,45,0.0,1.0,77,0.00,,,0.00,81.51,Custom,2013-03-23 16:59:00,
2013-03-23 12:04:00,36.8,30.0,29.91,NE,50,0.0,3.0,76,0.00,,,0.00,76.83,Custom,2013-03-23 17:04:00,
2013-03-23 12:09:00,36.7,30.0,29.90,ENE,59,0.0,3.0,76,0.00,,,0.00,75.66,Custom,2013-03-23 17:09:00,
2013-03-23 12:14:00,36.6,29.0,29.90,NE,51,0.0,5.0,75,0.00,,,0.00,78.39,Custom,2013-03-23 17:14:00,
2013-03-23 12:19:00,36.9,30.0,29.89,NE,56,0.0,4.0,76,0.00,,,0.00,90.87,Custom,2013-03-23 17:19:00,
2013-03-23 12:24:00,36.9,30.0,29.89,NE,52,4.0,9.0,75,0.00,,,0.00,122.07,Custom,2013-03-23 17:24:00,
2013-03-23 12:29:00,37.2,30.0,29.89,ENE,58,4.0,9.0,74,0.00,,,0.00,134.55,Custom,2013-03-23 17:29:00,
2013-03-23 12:34:00,37.4,29.0,29.88,ENE,61,2.0,7.0,73,0.00,,,0.00,140.4,Custom,2013-03-23 17:34:00,
2013-03-23 12:39:00,37.5,30.0,29.88,ENE,60,1.0,6.0,73,0.00,,,0.00,166.14,Custom,2013-03-23 17:39:00,
2013-03-23 12:44:00,38.4,31.0,29.87,ENE,57,9.0,9.0,73,0.00,,,0.00,154.83,Custom,2013-03-23 17:44:00,
2013-03-23 12:49:00,37.9,29.0,29.86,NNE,33,0.0,9.0,71,0.00,,,0.00,138.45,Custom,2013-03-23 17:49:00,
2013-03-23 12:54:00,37.9,29.0,29.86,ENE,61,4.0,5.0,71,0.00,,,0.00,99.84,Custom,2013-03-23 17:54:00,
2013-03-23 12:59:00,37.5,29.0,29.85,ENE,65,6.0,7.0,71,0.00,,,0.00,126.75,Custom,2013-03-23 17:59:00,
2013-03-23 13:04:00,37.5,29.0,29.83,East,86,2.0,14.0,72,0.00,,,0.00,161.07,Custom,2013-03-23 18:04:00,
2013-03-23 13:09:00,37.5,29.0,29.83,East,96,3.0,7.0,71,0.00,,,0.00,137.67,Custom,2013-03-23 18:09:00,
2013-03-23 13:14:00,37.5,29.0,29.83,NNE,22,5.0,11.0,71,0.00,,,0.00,138.84,Custom,2013-03-23 18:14:00,
2013-03-23 13:19:00,38.0,29.0,29.83,NE,42,0.0,12.0,71,0.00,,,0.00,153.66,Custom,2013-03-23 18:19:00,
2013-03-23 13:24:00,38.3,29.0,29.83,East,84,7.0,11.0,70,0.00,,,0.00,207.09,Custom,2013-03-23 18:24:00,
2013-03-23 13:29:00,38.9,30.0,29.83,NE,39,5.0,11.0,69,0.00,,,0.00,184.08,Custom,2013-03-23 18:29:00,
2013-03-23 13:34:00,38.3,29.0,29.83,East,79,6.0,13.0,68,0.00,,,0.00,135.72,Custom,2013-03-23 18:34:00,
2013-03-23 13:39:00,38.7,29.0,29.83,ENE,64,2.0,6.0,69,0.00,,,0.00,103.74,Custom,2013-03-23 18:39:00,
2013-03-23 13:44:00,38.2,29.0,29.84,ENE,58,4.0,8.0,68,0.00,,,0.00,68.64,Custom,2013-03-23 18:44:00,
2013-03-23 13:49:00,38.3,29.0,29.83,ENE,74,0.0,6.0,69,0.00,,,0.00,75.27,Custom,2013-03-23 18:49:00,
2013-03-23 13:54:00,38.1,29.0,29.83,ENE,63,0.0,9.0,69,0.00,,,0.00,73.71,Custom,2013-03-23 18:54:00,
2013-03-23 13:59:00,38.2,29.0,29.83,NNE,18,8.0,8.0,68,0.00,,,0.00,81.12,Custom,2013-03-23 18:59:00,
2013-03-23 14:04:00,38.2,29.0,29.83,NE,43,7.0,9.0,68,0.00,,,0.00,65.52,Custom,2013-03-23 19:04:00,
2013-03-23 14:09:00,38.2,29.0,29.83,ESE,102,8.0,8.0,69,0.00,,,0.00,69.42,Custom,2013-03-23 19:09:00,
2013-03-23 14:14:00,38.1,28.0,29.83,East,91,2.0,7.0,68,0.00,,,0.00,73.32,Custom,2013-03-23 19:14:00,
2013-03-23 14:19:00,38.3,29.0,29.83,NE,56,5.0,12.0,68,0.00,,,0.00,64.74,Custom,2013-03-23 19:19:00,
2013-03-23 14:24:00,38.3,28.0,29.82,NE,50,4.0,7.0,67,0.00,,,0.00,65.13,Custom,2013-03-23 19:24:00,
2013-03-23 14:29:00,38.5,29.0,29.82,NNE,21,3.0,6.0,68,0.00,,,0.00,76.05,Custom,2013-03-23 19:29:00,
2013-03-23 14:34:00,38.5,28.0,29.81,ENE,69,7.0,7.0,66,0.00,,,0.00,72.54,Custom,2013-03-23 19:34:00,
2013-03-23 14:39:00,38.6,29.0,29.81,North,10,0.0,8.0,67,0.00,,,0.00,66.3,Custom,2013-03-23 19:39:00,
2013-03-23 14:44:00,38.5,29.0,29.80,NE,43,7.0,12.0,67,0.00,,,0.00,63.96,Custom,2013-03-23 19:44:00,
2013-03-23 14:49:00,38.5,29.0,29.80,ENE,67,3.0,8.0,68,0.00,,,0.00,53.43,Custom,2013-03-23 19:49:00,
2013-03-23 14:54:00,38.4,29.0,29.80,North,360,4.0,6.0,68,0.00,,,0.00,47.58,Custom,2013-03-23 19:54:00,
2013-03-23 14:59:00,38.4,28.0,29.79,North,2,5.0,6.0,67,0.00,,,0.00,47.58,Custom,2013-03-23 19:59:00,
2013-03-23 15:04:00,38.3,29.0,29.79,NE,46,4.0,7.0,68,0.00,,,0.00,36.27,Custom,2013-03-23 20:04:00,
2013-03-23 15:09:00,38.3,29.0,29.79,NNE,17,12.0,12.0,68,0.00,,,0.00,39,Custom,2013-03-23 20:09:00,
2013-03-23 15:14:00,38.2,29.0,29.79,NE,48,7.0,11.0,69,0.00,,,0.00,25.74,Custom,2013-03-23 20:14:00,
2013-03-23 15:19:00,38.1,29.0,29.79,NE,42,5.0,10.0,69,0.00,,,0.00,19.5,Custom,2013-03-23 20:19:00,
2013-03-23 15:24:00,38.0,29.0,29.80,East,82,4.0,10.0,70,0.00,,,0.00,15.21,Custom,2013-03-23 20:24:00,
2013-03-23 15:29:00,37.9,29.0,29.81,East,80,0.0,5.0,70,0.00,,,0.00,15.21,Custom,2013-03-23 20:29:00,
2013-03-23 15:34:00,37.8,29.0,29.81,ENE,68,0.0,6.0,71,0.00,,,0.00,19.5,Custom,2013-03-23 20:34:00,
2013-03-23 15:39:00,37.3,29.0,29.82,NE,43,3.0,6.0,71,0.00,,,0.00,19.89,Custom,2013-03-23 20:39:00,
2013-03-23 15:44:00,35.7,29.0,29.82,NE,42,5.0,8.0,78,0.00,,,0.00,21.84,Custom,2013-03-23 20:44:00,
2013-03-23 15:49:00,34.8,30.0,29.82,NE,53,2.0,8.0,82,0.00,,,0.00,21.84,Custom,2013-03-23 20:49:00,
2013-03-23 15:54:00,34.5,30.0,29.81,NE,40,5.0,5.0,85,0.00,,,0.00,17.16,Custom,2013-03-23 20:54:00,
2013-03-23 15:59:00,34.2,30.0,29.81,ENE,64,4.0,5.0,85,0.00,,,0.00,17.55,Custom,2013-03-23 20:59:00,
2013-03-23 16:04:00,34.0,31.0,29.80,ENE,72,0.0,5.0,87,0.00,,,0.00,23.79,Custom,2013-03-23 21:04:00,
2013-03-23 16:09:00,34.0,31.0,29.80,NE,49,0.0,5.0,87,0.00,,,0.00,31.59,Custom,2013-03-23 21:09:00,
2013-03-23 16:14:00,34.0,31.0,29.80,ENE,61,3.0,7.0,88,0.00,,,0.00,25.35,Custom,2013-03-23 21:14:00,
2013-03-23 16:19:00,33.8,31.0,29.80,ENE,61,3.0,7.0,88,0.00,,,0.00,14.82,Custom,2013-03-23 21:19:00,
2013-03-23 16:24:00,33.7,31.0,29.80,ENE,64,4.0,4.0,89,0.00,,,0.00,13.26,Custom,2013-03-23 21:24:00,
2013-03-23 16:29:00,33.6,31.0,29.80,NE,55,2.0,4.0,89,0.00,,,0.00,16.38,Custom,2013-03-23 21:29:00,
2013-03-23 16:34:00,33.5,31.0,29.80,NE,48,3.0,3.0,90,0.00,,,0.00,18.72,Custom,2013-03-23 21:34:00,
2013-03-23 16:39:00,33.4,31.0,29.79,ENE,62,0.0,4.0,90,0.00,,,0.00,21.45,Custom,2013-03-23 21:39:00,
2013-03-23 16:44:00,33.4,31.0,29.78,NE,49,0.0,3.0,89,0.00,,,0.00,17.55,Custom,2013-03-23 21:44:00,
2013-03-23 16:49:00,33.3,31.0,29.79,NE,38,0.0,2.0,90,0.00,,,0.00,12.48,Custom,2013-03-23 21:49:00,
2013-03-23 16:54:00,33.2,31.0,29.78,NE,52,0.0,3.0,90,0.00,,,0.00,10.92,Custom,2013-03-23 21:54:00,
2013-03-23 16:59:00,33.2,31.0,29.78,NE,53,3.0,3.0,90,0.00,,,0.00,8.19,Custom,2013-03-23 21:59:00,
2013-03-23 17:04:00,33.1,31.0,29.78,ENE,59,0.0,5.0,91,0.00,,,0.00,8.19,Custom,2013-03-23 22:04:00,
2013-03-23 17:09:00,33.1,31.0,29.78,NE,55,0.0,5.0,91,0.00,,,0.00,8.19,Custom,2013-03-23 22:09:00,
2013-03-23 17:14:00,33.1,31.0,29.78,NE,56,0.0,3.0,92,0.00,,,0.00,10.92,Custom,2013-03-23 22:14:00,
2013-03-23 17:19:00,33.1,31.0,29.78,NE,52,0.0,3.0,91,0.00,,,0.00,11.31,Custom,2013-03-23 22:19:00,
2013-03-23 17:24:00,33.1,31.0,29.78,ENE,71,0.0,5.0,91,0.00,,,0.00,14.43,Custom,2013-03-23 22:24:00,
2013-03-23 17:29:00,33.3,31.0,29.78,ENE,64,0.0,2.0,91,0.00,,,0.00,12.09,Custom,2013-03-23 22:29:00,
2013-03-23 17:34:00,33.2,31.0,29.79,ENE,64,0.0,2.0,90,0.00,,,0.00,0,Custom,2013-03-23 22:34:00,
2013-03-23 17:39:00,33.2,31.0,29.79,ENE,63,0.0,1.0,91,0.00,,,0.00,0,Custom,2013-03-23 22:39:00,
2013-03-23 17:44:00,33.1,31.0,29.79,North,9,0.0,3.0,91,0.00,,,0.00,0,Custom,2013-03-23 22:44:00,
2013-03-23 17:49:00,33.1,31.0,29.79,ENE,75,3.0,3.0,91,0.00,,,0.00,0,Custom,2013-03-23 22:49:00,
2013-03-23 17:54:00,33.1,31.0,29.78,ENE,66,0.0,4.0,92,0.00,,,0.00,0,Custom,2013-03-23 22:54:00,
2013-03-23 17:59:00,33.1,31.0,29.78,ENE,62,1.0,2.0,91,0.00,,,0.00,0,Custom,2013-03-23 22:59:00,
2013-03-23 18:04:00,33.2,31.0,29.78,NNE,25,0.0,3.0,92,0.00,,,0.00,0,Custom,2013-03-23 23:04:00,
2013-03-23 18:09:00,33.2,31.0,29.78,North,6,0.0,3.0,92,0.00,,,0.00,11.31,Custom,2013-03-23 23:09:00,
2013-03-23 18:14:00,33.3,31.0,29.78,NNE,20,0.0,3.0,92,0.00,,,0.00,12.87,Custom,2013-03-23 23:14:00,
2013-03-23 18:19:00,33.4,31.0,29.79,North,10,0.0,0.0,91,0.00,,,0.00,0,Custom,2013-03-23 23:19:00,
2013-03-23 18:24:00,33.2,31.0,29.78,NE,40,0.0,0.0,92,0.00,,,0.00,0,Custom,2013-03-23 23:24:00,
2013-03-23 18:29:00,33.2,31.0,29.78,North,11,0.0,0.0,92,0.00,,,0.00,0,Custom,2013-03-23 23:29:00,
2013-03-23 18:34:00,33.2,31.0,29.79,NE,53,0.0,3.0,92,0.00,,,0.00,0,Custom,2013-03-23 23:34:00,
2013-03-23 18:39:00,33.2,31.0,29.78,ENE,72,0.0,2.0,92,0.00,,,0.00,0,Custom,2013-03-23 23:39:00,
2013-03-23 18:44:00,33.2,31.0,29.78,NE,49,0.0,3.0,92,0.00,,,0.00,0,Custom,2013-03-23 23:44:00,
2013-03-23 18:49:00,33.1,31.0,29.78,North,8,3.0,3.0,92,0.00,,,0.00,0,Custom,2013-03-23 23:49:00,
2013-03-23 18:54:00,33.1,31.0,29.78,ENE,66,0.0,3.0,92,0.00,,,0.00,0,Custom,2013-03-23 23:54:00,
2013-03-23 18:59:00,33.1,31.0,29.78,NE,41,0.0,2.0,92,0.00,,,0.00,0,Custom,2013-03-23 23:59:00,
2013-03-23 19:04:00,33.2,31.0,29.78,NE,43,0.0,2.0,93,0.00,,,0.00,0,Custom,2013-03-24 00:04:00,
2013-03-23 19:09:00,33.2,31.0,29.78,NNE,25,0.0,2.0,92,0.00,,,0.00,0,Custom,2013-03-24 00:09:00,
2013-03-23 19:14:00,33.1,31.0,29.78,ENE,58,0.0,4.0,92,0.00,,,0.00,0,Custom,2013-03-24 00:14:00,
2013-03-23 19:19:00,33.2,31.0,29.78,ENE,68,0.0,4.0,93,0.00,,,0.00,0,Custom,2013-03-24 00:19:00,
2013-03-23 19:24:00,33.2,31.0,29.78,ENE,62,2.0,3.0,93,0.00,,,0.00,0,Custom,2013-03-24 00:24:00,
2013-03-23 19:29:00,33.2,31.0,29.78,NE,56,0.0,5.0,93,0.00,,,0.00,0,Custom,2013-03-24 00:29:00,
2013-03-23 19:34:00,33.2,31.0,29.79,NE,47,4.0,6.0,93,0.00,,,0.00,0,Custom,2013-03-24 00:34:00,
2013-03-23 19:39:00,33.2,31.0,29.79,ENE,58,3.0,5.0,93,0.00,,,0.00,0,Custom,2013-03-24 00:39:00,
2013-03-23 19:44:00,33.1,31.0,29.80,ENE,57,0.0,4.0,93,0.00,,,0.00,0,Custom,2013-03-24 00:44:00,
2013-03-23 19:49:00,33.1,31.0,29.80,ENE,62,2.0,5.0,92,0.00,,,0.00,0,Custom,2013-03-24 00:49:00,
2013-03-23 19:54:00,33.1,31.0,29.80,North,357,2.0,4.0,93,0.00,,,0.00,0,Custom,2013-03-24 00:54:00,
2013-03-23 19:59:00,33.1,31.0,29.80,NE,52,2.0,3.0,93,0.00,,,0.00,0,Custom,2013-03-24 00:59:00,
2013-03-23 20:04:00,33.0,31.0,29.80,NNE,19,0.0,4.0,93,0.00,,,0.00,0,Custom,2013-03-24 01:04:00,
2013-03-23 20:09:00,33.0,31.0,29.80,NE,46,0.0,2.0,93,0.00,,,0.00,0,Custom,2013-03-24 01:09:00,
2013-03-23 20:14:00,33.0,31.0,29.80,NE,56,0.0,4.0,93,0.00,,,0.00,0,Custom,2013-03-24 01:14:00,
2013-03-23 20:19:00,33.0,31.0,29.80,NE,51,3.0,3.0,93,0.00,,,0.00,0,Custom,2013-03-24 01:19:00,
2013-03-23 20:24:00,33.0,31.0,29.80,NNE,20,0.0,3.0,93,0.00,,,0.00,0,Custom,2013-03-24 01:24:00,
2013-03-23 20:29:00,33.0,31.0,29.80,NNE,22,0.0,2.0,93,0.00,,,0.00,0,Custom,2013-03-24 01:29:00,
2013-03-23 20:34:00,33.0,31.0,29.81,NNE,22,0.0,2.0,93,0.00,,,0.00,0,Custom,2013-03-24 01:34:00,
2013-03-23 20:39:00,33.0,31.0,29.81,NNE,17,0.0,3.0,93,0.00,,,0.00,0,Custom,2013-03-24 01:39:00,
2013-03-23 20:44:00,33.0,31.0,29.81,North,360,0.0,3.0,93,0.00,,,0.00,0,Custom,2013-03-24 01:44:00,
2013-03-23 20:49:00,33.0,31.0,29.80,North,4,5.0,5.0,93,0.00,,,0.00,0,Custom,2013-03-24 01:49:00,
2013-03-23 20:54:00,33.0,31.0,29.81,NNE,17,0.0,6.0,93,0.00,,,0.00,0,Custom,2013-03-24 01:54:00,
2013-03-23 20:59:00,33.0,31.0,29.81,North,6,0.0,2.0,93,0.00,,,0.00,0,Custom,2013-03-24 01:59:00,
2013-03-23 21:04:00,33.0,31.0,29.81,North,358,0.0,4.0,93,0.00,,,0.00,0,Custom,2013-03-24 02:04:00,
2013-03-23 21:09:00,33.0,31.0,29.81,North,360,2.0,3.0,93,0.00,,,0.00,0,Custom,2013-03-24 02:09:00,
2013-03-23 21:14:00,33.0,31.0,29.82,NNE,26,2.0,4.0,93,0.00,,,0.00,0,Custom,2013-03-24 02:14:00,
2013-03-23 21:19:00,32.9,31.0,29.81,NE,41,0.0,2.0,94,0.00,,,0.00,0,Custom,2013-03-24 02:19:00,
2013-03-23 21:24:00,32.9,31.0,29.82,North,0,0.0,3.0,93,0.00,,,0.00,0,Custom,2013-03-24 02:24:00,
2013-03-23 21:29:00,32.9,31.0,29.83,North,2,0.0,3.0,93,0.00,,,0.00,0,Custom,2013-03-24 02:29:00,
2013-03-23 21:34:00,32.9,31.0,29.83,NNE,31,0.0,1.0,93,0.00,,,0.00,0,Custom,2013-03-24 02:34:00,
2013-03-23 21:39:00,32.9,31.0,29.83,NNE,19,1.0,1.0,93,0.00,,,0.00,0,Custom,2013-03-24 02:39:00,
2013-03-23 21:44:00,32.9,31.0,29.83,NNE,25,0.0,2.0,93,0.00,,,0.00,0,Custom,2013-03-24 02:44:00,
2013-03-23 21:49:00,32.9,31.0,29.83,NNE,20,0.0,2.0,94,0.00,,,0.00,0,Custom,2013-03-24 02:49:00,
2013-03-23 21:54:00,32.9,31.0,29.83,North,7,0.0,2.0,93,0.00,,,0.00,0,Custom,2013-03-24 02:54:00,
2013-03-23 21:59:00,32.9,31.0,29.84,North,0,0.0,1.0,93,0.00,,,0.00,0,Custom,2013-03-24 02:59:00,
2013-03-23 22:04:00,32.9,31.0,29.83,North,0,0.0,2.0,93,0.00,,,0.00,0,Custom,2013-03-24 03:04:00,
2013-03-23 22:09:00,32.9,31.0,29.83,NNE,31,0.0,2.0,93,0.00,,,0.00,0,Custom,2013-03-24 03:09:00,
2013-03-23 22:14:00,32.8,31.0,29.83,NE,42,0.0,0.0,93,0.00,,,0.00,0,Custom,2013-03-24 03:14:00,
2013-03-23 22:19:00,32.9,31.0,29.82,North,7,1.0,2.0,93,0.00,,,0.00,0,Custom,2013-03-24 03:19:00,
2013-03-23 22:24:00,32.8,31.0,29.82,ENE,69,2.0,4.0,93,0.00,,,0.00,0,Custom,2013-03-24 03:24:00,
2013-03-23 22:29:00,32.8,31.0,29.82,NE,51,0.0,4.0,94,0.00,,,0.00,0,Custom,2013-03-24 03:29:00,
2013-03-23 22:34:00,32.9,31.0,29.81,North,3,0.0,6.0,93,0.00,,,0.00,0,Custom,2013-03-24 03:34:00,
2013-03-23 22:39:00,32.8,31.0,29.81,NE,46,1.0,4.0,94,0.00,,,0.00,0,Custom,2013-03-24 03:39:00,
2013-03-23 22:44:00,32.8,31.0,29.80,NE,49,0.0,5.0,94,0.00,,,0.00,0,Custom,2013-03-24 03:44:00,
2013-03-23 22:49:00,32.8,31.0,29.80,NE,43,1.0,5.0,93,0.00,,,0.00,0,Custom,2013-03-24 03:49:00,
2013-03-23 22:54:00,32.8,31.0,29.80,NNE,28,0.0,4.0,94,0.00,,,0.00,0,Custom,2013-03-24 03:54:00,
2013-03-23 22:59:00,32.8,31.0,29.80,NNE,15,0.0,4.0,94,0.00,,,0.00,0,Custom,2013-03-24 03:59:00,
2013-03-23 23:00:00,32.7,31.0,29.80,NE,55,2.0,4.0,94,0.00,,,0.00,0,Custom,2013-03-24 04:00:00,
2013-03-23 23:01:00,32.7,31.0,29.80,North,0,4.0,4.0,94,0.00,,,0.00,0,Custom,2013-03-24 04:01:00,
2013-03-23 23:02:00,32.7,31.0,29.79,NE,43,0.0,6.0,94,0.00,,,0.00,0,Custom,2013-03-24 04:02:00,
2013-03-23 23:07:00,32.7,31.0,29.78,NE,51,1.0,4.0,94,0.00,,,0.00,0,Custom,2013-03-24 04:07:00,
2013-03-23 23:12:00,32.7,31.0,29.76,NNE,30,0.0,7.0,95,0.00,,,0.00,0,Custom,2013-03-24 04:12:00,
2013-03-23 23:17:00,32.7,31.0,29.76,North,8,0.0,5.0,94,0.00,,,0.00,0,Custom,2013-03-24 04:17:00,
2013-03-23 23:22:00,32.7,31.0,29.76,North,11,0.0,8.0,94,0.00,,,0.00,0,Custom,2013-03-24 04:22:00,
2013-03-23 23:27:00,32.7,31.0,29.76,NE,42,5.0,6.0,94,0.00,,,0.00,0,Custom,2013-03-24 04:27:00,
2013-03-23 23:32:00,32.7,31.0,29.76,NE,35,0.0,6.0,93,0.00,,,0.00,0,Custom,2013-03-24 04:32:00,
2013-03-23 23:37:00,32.7,31.0,29.76,NNE,33,0.0,6.0,94,0.00,,,0.00,0,Custom,2013-03-24 04:37:00,
2013-03-23 23:42:00,32.7,31.0,29.76,North,0,0.0,5.0,94,0.00,,,0.00,0,Custom,2013-03-24 04:42:00,
2013-03-23 23:47:00,32.7,31.0,29.76,North,7,0.0,5.0,94,0.00,,,0.00,0,Custom,2013-03-24 04:47:00,
2013-03-23 23:52:00,32.7,31.0,29.75,East,96,1.0,6.0,94,0.00,,,0.00,0,Custom,2013-03-24 04:52:00,
2013-03-23 23:57:00,32.7,31.0,29.76,NNE,26,0.0,6.0,94,0.00,,,0.00,0,Custom,2013-03-24 04:57:00,